Year,Month,Day,Hour,Minute,Value (Times are PST for temperature in C)
2017,09,21,00,00,12.20
2017,09,21,00,01,12.20
2017,09,21,00,02,12.20
2017,09,21,00,03,12.20
2017,09,21,00,04,12.20
2017,09,21,00,05,12.20
2017,09,21,00,06,12.20
2017,09,21,00,07,12.20
2017,09,21,00,08,12.20
2017,09,21,00,09,12.20
2017,09,21,00,10,12.20
2017,09,21,00,11,12.20
2017,09,21,00,12,12.20
2017,09,21,00,13,12.20
2017,09,21,00,14,12.20
2017,09,21,00,15,12.20
2017,09,21,00,16,12.20
2017,09,21,00,17,12.20
2017,09,21,00,18,12.20
2017,09,21,00,19,12.20
2017,09,21,00,20,12.20
2017,09,21,00,21,12.10
2017,09,21,00,22,12.10
2017,09,21,00,23,12.10
2017,09,21,00,24,12.10
2017,09,21,00,25,12.10
2017,09,21,00,26,12.10
2017,09,21,00,27,12.00
2017,09,21,00,28,12.00
2017,09,21,00,29,12.00
2017,09,21,00,30,11.90
2017,09,21,00,31,11.90
2017,09,21,00,32,11.80
2017,09,21,00,33,11.80
2017,09,21,00,34,11.80
2017,09,21,00,35,11.80
2017,09,21,00,36,11.70
2017,09,21,00,37,11.70
2017,09,21,00,38,11.70
2017,09,21,00,39,11.70
2017,09,21,00,40,11.70
2017,09,21,00,41,11.70
2017,09,21,00,42,11.70
2017,09,21,00,43,11.70
2017,09,21,00,44,11.70
2017,09,21,00,45,11.70
2017,09,21,00,46,11.70
2017,09,21,00,47,11.70
2017,09,21,00,48,11.70
2017,09,21,00,49,11.70
2017,09,21,00,50,11.70
2017,09,21,00,51,11.70
2017,09,21,00,52,11.70
2017,09,21,00,53,11.70
2017,09,21,00,54,11.70
2017,09,21,00,55,11.70
2017,09,21,00,56,11.70
2017,09,21,00,57,11.70
2017,09,21,00,58,11.70
2017,09,21,00,59,11.70
2017,09,21,01,00,11.70
2017,09,21,01,01,11.70
2017,09,21,01,02,11.70
2017,09,21,01,03,11.70
2017,09,21,01,04,11.60
2017,09,21,01,05,11.60
2017,09,21,01,06,11.60
2017,09,21,01,07,11.60
2017,09,21,01,08,11.60
2017,09,21,01,09,11.60
2017,09,21,01,10,11.60
2017,09,21,01,11,11.70
2017,09,21,01,12,11.70
2017,09,21,01,13,11.70
2017,09,21,01,14,11.80
2017,09,21,01,15,11.80
2017,09,21,01,16,11.80
2017,09,21,01,17,11.90
2017,09,21,01,18,11.90
2017,09,21,01,19,11.90
2017,09,21,01,20,11.90
2017,09,21,01,21,11.90
2017,09,21,01,22,12.00
2017,09,21,01,23,12.00
2017,09,21,01,24,11.90
2017,09,21,01,25,11.90
2017,09,21,01,26,11.90
2017,09,21,01,27,11.90
2017,09,21,01,28,11.80
2017,09,21,01,29,11.80
2017,09,21,01,30,11.70
2017,09,21,01,31,11.70
2017,09,21,01,32,11.60
2017,09,21,01,33,11.60
2017,09,21,01,34,11.50
2017,09,21,01,35,11.50
2017,09,21,01,36,11.40
2017,09,21,01,37,11.40
2017,09,21,01,38,11.30
2017,09,21,01,39,11.30
2017,09,21,01,40,11.30
2017,09,21,01,41,11.30
2017,09,21,01,42,11.30
2017,09,21,01,43,11.30
2017,09,21,01,44,11.30
2017,09,21,01,45,11.30
2017,09,21,01,46,11.30
2017,09,21,01,47,11.30
2017,09,21,01,48,11.30
2017,09,21,01,49,11.30
2017,09,21,01,50,11.30
2017,09,21,01,51,11.30
2017,09,21,01,52,11.30
2017,09,21,01,53,11.30
2017,09,21,01,54,11.30
2017,09,21,01,55,11.30
2017,09,21,01,56,11.30
2017,09,21,01,57,11.30
2017,09,21,01,58,11.30
2017,09,21,01,59,11.40
2017,09,21,02,00,11.40
2017,09,21,02,01,11.40
2017,09,21,02,02,11.50
2017,09,21,02,03,11.50
2017,09,21,02,04,11.60
2017,09,21,02,05,11.60
2017,09,21,02,06,11.60
2017,09,21,02,07,11.70
2017,09,21,02,08,11.70
2017,09,21,02,09,11.80
2017,09,21,02,10,11.80
2017,09,21,02,11,11.80
2017,09,21,02,12,11.80
2017,09,21,02,13,11.80
2017,09,21,02,14,11.90
2017,09,21,02,15,11.90
2017,09,21,02,16,11.90
2017,09,21,02,17,11.90
2017,09,21,02,18,11.90
2017,09,21,02,19,11.90
2017,09,21,02,20,11.80
2017,09,21,02,21,11.80
2017,09,21,02,22,11.80
2017,09,21,02,23,11.80
2017,09,21,02,24,11.80
2017,09,21,02,25,11.80
2017,09,21,02,26,11.80
2017,09,21,02,27,11.70
2017,09,21,02,28,11.70
2017,09,21,02,29,11.70
2017,09,21,02,30,11.70
2017,09,21,02,31,11.60
2017,09,21,02,32,11.60
2017,09,21,02,33,11.50
2017,09,21,02,34,11.50
2017,09,21,02,35,11.40
2017,09,21,02,36,11.40
2017,09,21,02,37,11.30
2017,09,21,02,38,11.30
2017,09,21,02,39,11.20
2017,09,21,02,40,11.20
2017,09,21,02,41,11.10
2017,09,21,02,42,11.10
2017,09,21,02,43,11.00
2017,09,21,02,44,11.00
2017,09,21,02,45,10.90
2017,09,21,02,46,10.90
2017,09,21,02,47,10.80
2017,09,21,02,48,10.80
2017,09,21,02,49,10.70
2017,09,21,02,50,10.70
2017,09,21,02,51,10.70
2017,09,21,02,52,10.60
2017,09,21,02,53,10.60
2017,09,21,02,54,10.60
2017,09,21,02,55,10.60
2017,09,21,02,56,10.60
2017,09,21,02,57,10.70
2017,09,21,02,58,10.70
2017,09,21,02,59,10.70
2017,09,21,03,00,10.70
2017,09,21,03,01,10.70
2017,09,21,03,02,10.70
2017,09,21,03,03,10.70
2017,09,21,03,04,10.70
2017,09,21,03,05,10.70
2017,09,21,03,06,10.70
2017,09,21,03,07,10.70
2017,09,21,03,08,10.70
2017,09,21,03,09,10.70
2017,09,21,03,10,10.70
2017,09,21,03,11,10.70
2017,09,21,03,12,10.70
2017,09,21,03,13,10.70
2017,09,21,03,14,10.70
2017,09,21,03,15,10.60
2017,09,21,03,16,10.60
2017,09,21,03,17,10.60
2017,09,21,03,18,10.60
2017,09,21,03,19,10.60
2017,09,21,03,20,10.50
2017,09,21,03,21,10.50
2017,09,21,03,22,10.40
2017,09,21,03,23,10.40
2017,09,21,03,24,10.40
2017,09,21,03,25,10.40
2017,09,21,03,26,10.40
2017,09,21,03,27,10.30
2017,09,21,03,28,10.30
2017,09,21,03,29,10.30
2017,09,21,03,30,10.30
2017,09,21,03,31,10.20
2017,09,21,03,32,10.20
2017,09,21,03,33,10.20
2017,09,21,03,34,10.20
2017,09,21,03,35,10.10
2017,09,21,03,36,10.10
2017,09,21,03,37,10.10
2017,09,21,03,38,10.00
2017,09,21,03,39,10.00
2017,09,21,03,40,10.00
2017,09,21,03,41,9.90
2017,09,21,03,42,9.90
2017,09,21,03,43,9.90
2017,09,21,03,44,9.80
2017,09,21,03,45,9.80
2017,09,21,03,46,9.80
2017,09,21,03,47,9.70
2017,09,21,03,48,9.70
2017,09,21,03,49,9.70
2017,09,21,03,50,9.70
2017,09,21,03,51,9.70
2017,09,21,03,52,9.70
2017,09,21,03,53,9.70
2017,09,21,03,54,9.70
2017,09,21,03,55,9.70
2017,09,21,03,56,9.70
2017,09,21,03,57,9.70
2017,09,21,03,58,9.70
2017,09,21,03,59,9.70
2017,09,21,04,00,9.80
2017,09,21,04,01,9.80
2017,09,21,04,02,9.80
2017,09,21,04,03,9.80
2017,09,21,04,04,9.80
2017,09,21,04,05,9.70
2017,09,21,04,06,9.70
2017,09,21,04,07,9.70
2017,09,21,04,08,9.70
2017,09,21,04,09,9.80
2017,09,21,04,10,9.80
2017,09,21,04,11,9.80
2017,09,21,04,12,9.80
2017,09,21,04,13,9.80
2017,09,21,04,14,9.80
2017,09,21,04,15,9.80
2017,09,21,04,16,9.80
2017,09,21,04,17,9.80
2017,09,21,04,18,9.80
2017,09,21,04,19,9.80
2017,09,21,04,20,9.80
2017,09,21,04,21,9.80
2017,09,21,04,22,9.80
2017,09,21,04,23,9.80
2017,09,21,04,24,9.80
2017,09,21,04,25,9.80
2017,09,21,04,26,9.90
2017,09,21,04,27,9.90
2017,09,21,04,28,9.90
2017,09,21,04,29,10.00
2017,09,21,04,30,10.00
2017,09,21,04,31,10.00
2017,09,21,04,32,10.00
2017,09,21,04,33,10.00
2017,09,21,04,34,10.10
2017,09,21,04,35,10.10
2017,09,21,04,36,10.10
2017,09,21,04,37,10.10
2017,09,21,04,38,10.10
2017,09,21,04,39,10.10
2017,09,21,04,40,10.10
2017,09,21,04,41,10.10
2017,09,21,04,42,10.10
2017,09,21,04,43,10.00
2017,09,21,04,44,10.10
2017,09,21,04,45,10.10
2017,09,21,04,46,10.20
2017,09,21,04,47,10.20
2017,09,21,04,48,10.30
2017,09,21,04,49,10.40
2017,09,21,04,50,10.40
2017,09,21,04,51,10.40
2017,09,21,04,52,10.40
2017,09,21,04,53,10.40
2017,09,21,04,54,10.30
2017,09,21,04,55,10.20
2017,09,21,04,56,10.20
2017,09,21,04,57,10.10
2017,09,21,04,58,10.10
2017,09,21,04,59,10.00
2017,09,21,05,00,10.00
2017,09,21,05,01,10.00
2017,09,21,05,02,9.90
2017,09,21,05,03,9.90
2017,09,21,05,04,9.90
2017,09,21,05,05,9.80
2017,09,21,05,06,9.80
2017,09,21,05,07,9.80
2017,09,21,05,08,9.80
2017,09,21,05,09,9.80
2017,09,21,05,10,9.80
2017,09,21,05,11,9.80
2017,09,21,05,12,9.80
2017,09,21,05,13,9.80
2017,09,21,05,14,9.80
2017,09,21,05,15,9.70
2017,09,21,05,16,9.70
2017,09,21,05,17,9.70
2017,09,21,05,18,9.70
2017,09,21,05,19,9.70
2017,09,21,05,20,9.70
2017,09,21,05,21,9.60
2017,09,21,05,22,9.60
2017,09,21,05,23,9.60
2017,09,21,05,24,9.60
2017,09,21,05,25,9.60
2017,09,21,05,26,9.60
2017,09,21,05,27,9.60
2017,09,21,05,28,9.60
2017,09,21,05,29,9.60
2017,09,21,05,30,9.60
2017,09,21,05,31,9.60
2017,09,21,05,32,9.60
2017,09,21,05,33,9.60
2017,09,21,05,34,9.60
2017,09,21,05,35,9.50
2017,09,21,05,36,9.50
2017,09,21,05,37,9.50
2017,09,21,05,38,9.50
2017,09,21,05,39,9.40
2017,09,21,05,40,9.40
2017,09,21,05,41,9.40
2017,09,21,05,42,9.40
2017,09,21,05,43,9.40
2017,09,21,05,44,9.40
2017,09,21,05,45,9.30
2017,09,21,05,46,9.30
2017,09,21,05,47,9.30
2017,09,21,05,48,9.30
2017,09,21,05,49,9.30
2017,09,21,05,50,9.30
2017,09,21,05,51,9.20
2017,09,21,05,52,9.20
2017,09,21,05,53,9.20
2017,09,21,05,54,9.30
2017,09,21,05,55,9.30
2017,09,21,05,56,9.30
2017,09,21,05,57,9.20
2017,09,21,05,58,9.20
2017,09,21,05,59,9.20
2017,09,21,06,00,9.20
2017,09,21,06,01,9.20
2017,09,21,06,02,9.20
2017,09,21,06,03,9.20
2017,09,21,06,04,9.10
2017,09,21,06,05,9.10
2017,09,21,06,06,9.10
2017,09,21,06,07,9.10
2017,09,21,06,08,9.10
2017,09,21,06,09,9.00
2017,09,21,06,10,9.00
2017,09,21,06,11,9.00
2017,09,21,06,12,8.90
2017,09,21,06,13,8.90
2017,09,21,06,14,8.90
2017,09,21,06,15,8.90
2017,09,21,06,16,8.90
2017,09,21,06,17,8.90
2017,09,21,06,18,8.90
2017,09,21,06,19,8.90
2017,09,21,06,20,8.80
2017,09,21,06,21,8.80
2017,09,21,06,22,8.80
2017,09,21,06,23,8.80
2017,09,21,06,24,8.80
2017,09,21,06,25,8.80
2017,09,21,06,26,8.80
2017,09,21,06,27,8.80
2017,09,21,06,28,8.80
2017,09,21,06,29,8.80
2017,09,21,06,30,8.80
2017,09,21,06,31,8.80
2017,09,21,06,32,8.80
2017,09,21,06,33,8.80
2017,09,21,06,34,8.70
2017,09,21,06,35,8.70
2017,09,21,06,36,8.70
2017,09,21,06,37,8.70
2017,09,21,06,38,8.70
2017,09,21,06,39,8.60
2017,09,21,06,40,8.60
2017,09,21,06,41,8.60
2017,09,21,06,42,8.60
2017,09,21,06,43,8.50
2017,09,21,06,44,8.50
2017,09,21,06,45,8.50
2017,09,21,06,46,8.50
2017,09,21,06,47,8.40
2017,09,21,06,48,8.40
2017,09,21,06,49,8.40
2017,09,21,06,50,8.40
2017,09,21,06,51,8.40
2017,09,21,06,52,8.40
2017,09,21,06,53,8.40
2017,09,21,06,54,8.40
2017,09,21,06,55,8.40
2017,09,21,06,56,8.50
2017,09,21,06,57,8.50
2017,09,21,06,58,8.50
2017,09,21,06,59,8.60
2017,09,21,07,00,8.60
2017,09,21,07,01,8.60
2017,09,21,07,02,8.60
2017,09,21,07,03,8.60
2017,09,21,07,04,8.60
2017,09,21,07,05,8.60
2017,09,21,07,06,8.60
2017,09,21,07,07,8.50
2017,09,21,07,08,8.50
2017,09,21,07,09,8.50
2017,09,21,07,10,8.50
2017,09,21,07,11,8.50
2017,09,21,07,12,8.40
2017,09,21,07,13,8.40
2017,09,21,07,14,8.40
2017,09,21,07,15,8.30
2017,09,21,07,16,8.30
2017,09,21,07,17,8.30
2017,09,21,07,18,8.20
2017,09,21,07,19,8.20
2017,09,21,07,20,8.20
2017,09,21,07,21,8.20
2017,09,21,07,22,8.20
2017,09,21,07,23,8.20
2017,09,21,07,24,8.20
2017,09,21,07,25,8.20
2017,09,21,07,26,8.20
2017,09,21,07,27,8.20
2017,09,21,07,28,8.30
2017,09,21,07,29,8.30
2017,09,21,07,30,8.30
2017,09,21,07,31,8.30
2017,09,21,07,32,8.30
2017,09,21,07,33,8.30
2017,09,21,07,34,8.30
2017,09,21,07,35,8.20
2017,09,21,07,36,8.20
2017,09,21,07,37,8.10
2017,09,21,07,38,8.10
2017,09,21,07,39,8.10
2017,09,21,07,40,8.00
2017,09,21,07,41,8.00
2017,09,21,07,42,8.00
2017,09,21,07,43,7.90
2017,09,21,07,44,7.90
2017,09,21,07,45,8.00
2017,09,21,07,46,8.00
2017,09,21,07,47,8.00
2017,09,21,07,48,8.10
2017,09,21,07,49,8.10
2017,09,21,07,50,8.20
2017,09,21,07,51,8.30
2017,09,21,07,52,8.30
2017,09,21,07,53,8.40
2017,09,21,07,54,8.50
2017,09,21,07,55,8.50
2017,09,21,07,56,8.60
2017,09,21,07,57,8.60
2017,09,21,07,58,8.60
2017,09,21,07,59,8.60
2017,09,21,08,00,8.60
2017,09,21,08,01,8.50
2017,09,21,08,02,8.50
2017,09,21,08,03,8.40
2017,09,21,08,04,8.40
2017,09,21,08,05,8.40
2017,09,21,08,06,8.40
2017,09,21,08,07,8.40
2017,09,21,08,08,8.30
2017,09,21,08,09,8.30
2017,09,21,08,10,8.30
2017,09,21,08,11,8.30
2017,09,21,08,12,8.30
2017,09,21,08,13,8.30
2017,09,21,08,14,8.30
2017,09,21,08,15,8.30
2017,09,21,08,16,8.20
2017,09,21,08,17,8.20
2017,09,21,08,18,8.20
2017,09,21,08,19,8.10
2017,09,21,08,20,8.10
2017,09,21,08,21,8.10
2017,09,21,08,22,8.10
2017,09,21,08,23,8.10
2017,09,21,08,24,8.10
2017,09,21,08,25,8.10
2017,09,21,08,26,8.10
2017,09,21,08,27,8.10
2017,09,21,08,28,8.10
2017,09,21,08,29,8.10
2017,09,21,08,30,8.10
2017,09,21,08,31,8.10
2017,09,21,08,32,8.10
2017,09,21,08,33,8.10
2017,09,21,08,34,8.10
2017,09,21,08,35,8.10
2017,09,21,08,36,8.10
2017,09,21,08,37,8.10
2017,09,21,08,38,8.00
2017,09,21,08,39,8.10
2017,09,21,08,40,8.10
2017,09,21,08,41,8.10
2017,09,21,08,42,8.00
2017,09,21,08,43,8.00
2017,09,21,08,44,8.00
2017,09,21,08,45,8.00
2017,09,21,08,46,8.00
2017,09,21,08,47,7.90
2017,09,21,08,48,7.90
2017,09,21,08,49,7.90
2017,09,21,08,50,7.90
2017,09,21,08,51,7.90
2017,09,21,08,52,7.90
2017,09,21,08,53,7.90
2017,09,21,08,54,7.90
2017,09,21,08,55,7.90
2017,09,21,08,56,7.90
2017,09,21,08,57,7.90
2017,09,21,08,58,7.90
2017,09,21,08,59,7.90
2017,09,21,09,00,8.00
2017,09,21,09,01,8.00
2017,09,21,09,02,8.00
2017,09,21,09,03,8.10
2017,09,21,09,04,8.10
2017,09,21,09,05,8.10
2017,09,21,09,06,8.10
2017,09,21,09,07,8.20
2017,09,21,09,08,8.20
2017,09,21,09,09,8.30
2017,09,21,09,10,8.30
2017,09,21,09,11,8.40
2017,09,21,09,12,8.50
2017,09,21,09,13,8.60
2017,09,21,09,14,8.70
2017,09,21,09,15,8.80
2017,09,21,09,16,8.90
2017,09,21,09,17,9.00
2017,09,21,09,18,9.10
2017,09,21,09,19,9.20
2017,09,21,09,20,9.30
2017,09,21,09,21,9.40
2017,09,21,09,22,9.50
2017,09,21,09,23,9.60
2017,09,21,09,24,9.70
2017,09,21,09,25,9.80
2017,09,21,09,26,9.80
2017,09,21,09,27,9.90
2017,09,21,09,28,10.00
2017,09,21,09,29,10.10
2017,09,21,09,30,10.20
2017,09,21,09,31,10.30
2017,09,21,09,32,10.40
2017,09,21,09,33,10.40
2017,09,21,09,34,10.50
2017,09,21,09,35,10.60
2017,09,21,09,36,10.70
2017,09,21,09,37,10.70
2017,09,21,09,38,10.80
2017,09,21,09,39,10.90
2017,09,21,09,40,10.90
2017,09,21,09,41,11.00
2017,09,21,09,42,11.10
2017,09,21,09,43,11.20
2017,09,21,09,44,11.30
2017,09,21,09,45,11.30
2017,09,21,09,46,11.40
2017,09,21,09,47,11.40
2017,09,21,09,48,11.50
2017,09,21,09,49,11.60
2017,09,21,09,50,11.60
2017,09,21,09,51,11.70
2017,09,21,09,52,11.80
2017,09,21,09,53,11.80
2017,09,21,09,54,11.90
2017,09,21,09,55,12.00
2017,09,21,09,56,12.10
2017,09,21,09,57,12.10
2017,09,21,09,58,12.20
2017,09,21,09,59,12.20
2017,09,21,10,00,12.30
2017,09,21,10,01,12.30
2017,09,21,10,02,12.40
2017,09,21,10,03,12.50
2017,09,21,10,04,12.60
2017,09,21,10,05,12.60
2017,09,21,10,06,12.70
2017,09,21,10,07,12.80
2017,09,21,10,08,12.80
2017,09,21,10,09,12.90
2017,09,21,10,10,12.90
2017,09,21,10,11,13.00
2017,09,21,10,12,13.00
2017,09,21,10,13,13.10
2017,09,21,10,14,13.10
2017,09,21,10,15,13.10
2017,09,21,10,16,13.20
2017,09,21,10,17,13.20
2017,09,21,10,18,13.30
2017,09,21,10,19,13.30
2017,09,21,10,20,13.40
2017,09,21,10,21,13.40
2017,09,21,10,22,13.40
2017,09,21,10,23,13.50
2017,09,21,10,24,13.60
2017,09,21,10,25,13.60
2017,09,21,10,26,13.70
2017,09,21,10,27,13.70
2017,09,21,10,28,13.70
2017,09,21,10,29,13.70
2017,09,21,10,30,13.70
2017,09,21,10,31,13.70
2017,09,21,10,32,13.70
2017,09,21,10,33,13.70
2017,09,21,10,34,13.70
2017,09,21,10,35,13.80
2017,09,21,10,36,13.80
2017,09,21,10,37,13.80
2017,09,21,10,38,13.80
2017,09,21,10,39,13.90
2017,09,21,10,40,13.90
2017,09,21,10,41,14.00
2017,09,21,10,42,14.00
2017,09,21,10,43,14.10
2017,09,21,10,44,14.10
2017,09,21,10,45,14.10
2017,09,21,10,46,14.10
2017,09,21,10,47,14.10
2017,09,21,10,48,14.10
2017,09,21,10,49,14.10
2017,09,21,10,50,14.10
2017,09,21,10,51,14.10
2017,09,21,10,52,14.10
2017,09,21,10,53,14.20
2017,09,21,10,54,14.20
2017,09,21,10,55,14.20
2017,09,21,10,56,14.20
2017,09,21,10,57,14.30
2017,09,21,10,58,14.30
2017,09,21,10,59,14.30
2017,09,21,11,00,14.30
2017,09,21,11,01,14.30
2017,09,21,11,02,14.30
2017,09,21,11,03,14.30
2017,09,21,11,04,14.40
2017,09,21,11,05,14.40
2017,09,21,11,06,14.50
2017,09,21,11,07,14.60
2017,09,21,11,08,14.60
2017,09,21,11,09,14.60
2017,09,21,11,10,14.70
2017,09,21,11,11,14.70
2017,09,21,11,12,14.80
2017,09,21,11,13,14.80
2017,09,21,11,14,14.80
2017,09,21,11,15,14.80
2017,09,21,11,16,14.80
2017,09,21,11,17,14.90
2017,09,21,11,18,14.90
2017,09,21,11,19,15.00
2017,09,21,11,20,15.00
2017,09,21,11,21,15.10
2017,09,21,11,22,15.10
2017,09,21,11,23,15.20
2017,09,21,11,24,15.20
2017,09,21,11,25,15.20
2017,09,21,11,26,15.30
2017,09,21,11,27,15.30
2017,09,21,11,28,15.30
2017,09,21,11,29,15.30
2017,09,21,11,30,15.30
2017,09,21,11,31,15.30
2017,09,21,11,32,15.30
2017,09,21,11,33,15.30
2017,09,21,11,34,15.40
2017,09,21,11,35,15.40
2017,09,21,11,36,15.40
2017,09,21,11,37,15.50
2017,09,21,11,38,15.50
2017,09,21,11,39,15.60
2017,09,21,11,40,15.60
2017,09,21,11,41,15.60
2017,09,21,11,42,15.70
2017,09,21,11,43,15.70
2017,09,21,11,44,15.70
2017,09,21,11,45,15.70
2017,09,21,11,46,15.70
2017,09,21,11,47,15.80
2017,09,21,11,48,15.80
2017,09,21,11,49,15.90
2017,09,21,11,50,15.90
2017,09,21,11,51,16.00
2017,09,21,11,52,16.00
2017,09,21,11,53,16.00
2017,09,21,11,54,16.00
2017,09,21,11,55,16.10
2017,09,21,11,56,16.10
2017,09,21,11,57,16.10
2017,09,21,11,58,16.20
2017,09,21,11,59,16.20
2017,09,21,12,00,16.20
2017,09,21,12,01,16.30
2017,09,21,12,02,16.30
2017,09,21,12,03,16.40
2017,09,21,12,04,16.40
2017,09,21,12,05,16.50
2017,09,21,12,06,16.50
2017,09,21,12,07,16.60
2017,09,21,12,08,16.70
2017,09,21,12,09,16.80
2017,09,21,12,10,16.80
2017,09,21,12,11,16.80
2017,09,21,12,12,16.80
2017,09,21,12,13,16.80
2017,09,21,12,14,16.80
2017,09,21,12,15,16.80
2017,09,21,12,16,16.80
2017,09,21,12,17,16.80
2017,09,21,12,18,16.70
2017,09,21,12,19,16.70
2017,09,21,12,20,16.70
2017,09,21,12,21,16.60
2017,09,21,12,22,16.60
2017,09,21,12,23,16.70
2017,09,21,12,24,16.70
2017,09,21,12,25,16.70
2017,09,21,12,26,16.80
2017,09,21,12,27,16.80
2017,09,21,12,28,16.80
2017,09,21,12,29,16.90
2017,09,21,12,30,17.00
2017,09,21,12,31,17.00
2017,09,21,12,32,17.10
2017,09,21,12,33,17.10
2017,09,21,12,34,17.10
2017,09,21,12,35,17.10
2017,09,21,12,36,17.10
2017,09,21,12,37,17.10
2017,09,21,12,38,17.10
2017,09,21,12,39,17.10
2017,09,21,12,40,17.10
2017,09,21,12,41,17.20
2017,09,21,12,42,17.20
2017,09,21,12,43,17.20
2017,09,21,12,44,17.20
2017,09,21,12,45,17.30
2017,09,21,12,46,17.30
2017,09,21,12,47,17.30
2017,09,21,12,48,17.30
2017,09,21,12,49,17.20
2017,09,21,12,50,17.20
2017,09,21,12,51,17.20
2017,09,21,12,52,17.20
2017,09,21,12,53,17.10
2017,09,21,12,54,17.10
2017,09,21,12,55,17.10
2017,09,21,12,56,17.20
2017,09,21,12,57,17.20
2017,09,21,12,58,17.30
2017,09,21,12,59,17.30
2017,09,21,13,00,17.30
2017,09,21,13,01,17.30
2017,09,21,13,02,17.30
2017,09,21,13,03,17.30
2017,09,21,13,04,17.30
2017,09,21,13,05,17.30
2017,09,21,13,06,17.30
2017,09,21,13,07,17.40
2017,09,21,13,08,17.40
2017,09,21,13,09,17.40
2017,09,21,13,10,17.50
2017,09,21,13,11,17.60
2017,09,21,13,12,17.60
2017,09,21,13,13,17.70
2017,09,21,13,14,17.70
2017,09,21,13,15,17.80
2017,09,21,13,16,17.80
2017,09,21,13,17,17.80
2017,09,21,13,18,17.80
2017,09,21,13,19,17.90
2017,09,21,13,20,17.90
2017,09,21,13,21,17.90
2017,09,21,13,22,18.00
2017,09,21,13,23,18.10
2017,09,21,13,24,18.10
2017,09,21,13,25,18.20
2017,09,21,13,26,18.20
2017,09,21,13,27,18.20
2017,09,21,13,28,18.20
2017,09,21,13,29,18.20
2017,09,21,13,30,18.20
2017,09,21,13,31,18.30
2017,09,21,13,32,18.30
2017,09,21,13,33,18.40
2017,09,21,13,34,18.40
2017,09,21,13,35,18.50
2017,09,21,13,36,18.60
2017,09,21,13,37,18.60
2017,09,21,13,38,18.70
2017,09,21,13,39,18.80
2017,09,21,13,40,18.80
2017,09,21,13,41,18.80
2017,09,21,13,42,18.70
2017,09,21,13,43,18.50
2017,09,21,13,44,18.40
2017,09,21,13,45,18.30
2017,09,21,13,46,18.30
2017,09,21,13,47,18.20
2017,09,21,13,48,18.20
2017,09,21,13,49,18.20
2017,09,21,13,50,18.20
2017,09,21,13,51,18.20
2017,09,21,13,52,18.30
2017,09,21,13,53,18.30
2017,09,21,13,54,18.40
2017,09,21,13,55,18.50
2017,09,21,13,56,18.70
2017,09,21,13,57,18.80
2017,09,21,13,58,18.90
2017,09,21,13,59,19.00
2017,09,21,14,00,19.10
2017,09,21,14,01,19.20
2017,09,21,14,02,19.30
2017,09,21,14,03,19.30
2017,09,21,14,04,19.40
2017,09,21,14,05,19.40
2017,09,21,14,06,19.50
2017,09,21,14,07,19.50
2017,09,21,14,08,19.60
2017,09,21,14,09,19.60
2017,09,21,14,10,19.60
2017,09,21,14,11,19.60
2017,09,21,14,12,19.60
2017,09,21,14,13,19.60
2017,09,21,14,14,19.70
2017,09,21,14,15,19.70
2017,09,21,14,16,19.80
2017,09,21,14,17,19.80
2017,09,21,14,18,19.90
2017,09,21,14,19,20.00
2017,09,21,14,20,20.00
2017,09,21,14,21,20.10
2017,09,21,14,22,20.10
2017,09,21,14,23,20.10
2017,09,21,14,24,20.10
2017,09,21,14,25,20.10
2017,09,21,14,26,20.10
2017,09,21,14,27,20.10
2017,09,21,14,28,20.10
2017,09,21,14,29,20.10
2017,09,21,14,30,20.20
2017,09,21,14,31,20.20
2017,09,21,14,32,20.20
2017,09,21,14,33,20.20
2017,09,21,14,34,20.20
2017,09,21,14,35,20.30
2017,09,21,14,36,20.30
2017,09,21,14,37,20.30
2017,09,21,14,38,20.40
2017,09,21,14,39,20.40
2017,09,21,14,40,20.40
2017,09,21,14,41,20.50
2017,09,21,14,42,20.50
2017,09,21,14,43,20.50
2017,09,21,14,44,20.50
2017,09,21,14,45,20.50
2017,09,21,14,46,20.50
2017,09,21,14,47,20.60
2017,09,21,14,48,20.60
2017,09,21,14,49,20.60
2017,09,21,14,50,20.60
2017,09,21,14,51,20.60
2017,09,21,14,52,20.60
2017,09,21,14,53,20.60
2017,09,21,14,54,20.50
2017,09,21,14,55,20.50
2017,09,21,14,56,20.40
2017,09,21,14,57,20.40
2017,09,21,14,58,20.40
2017,09,21,14,59,20.40
2017,09,21,15,00,20.40
2017,09,21,15,01,20.40
2017,09,21,15,02,20.50
2017,09,21,15,03,20.50
2017,09,21,15,04,20.50
2017,09,21,15,05,20.50
2017,09,21,15,06,20.50
2017,09,21,15,07,20.50
2017,09,21,15,08,20.50
2017,09,21,15,09,20.40
2017,09,21,15,10,20.40
2017,09,21,15,11,20.40
2017,09,21,15,12,20.40
2017,09,21,15,13,20.50
2017,09,21,15,14,20.50
2017,09,21,15,15,20.60
2017,09,21,15,16,20.60
2017,09,21,15,17,20.70
2017,09,21,15,18,20.80
2017,09,21,15,19,20.80
2017,09,21,15,20,20.70
2017,09,21,15,21,20.70
2017,09,21,15,22,20.70
2017,09,21,15,23,20.70
2017,09,21,15,24,20.70
2017,09,21,15,25,20.70
2017,09,21,15,26,20.70
2017,09,21,15,27,20.70
2017,09,21,15,28,20.70
2017,09,21,15,29,20.80
2017,09,21,15,30,20.80
2017,09,21,15,31,20.80
2017,09,21,15,32,20.70
2017,09,21,15,33,20.70
2017,09,21,15,34,20.70
2017,09,21,15,35,20.70
2017,09,21,15,36,20.70
2017,09,21,15,37,20.60
2017,09,21,15,38,20.70
2017,09,21,15,39,20.70
2017,09,21,15,40,20.70
2017,09,21,15,41,20.70
2017,09,21,15,42,20.70
2017,09,21,15,43,20.70
2017,09,21,15,44,20.70
2017,09,21,15,45,20.70
2017,09,21,15,46,20.70
2017,09,21,15,47,20.70
2017,09,21,15,48,20.70
2017,09,21,15,49,20.70
2017,09,21,15,50,20.70
2017,09,21,15,51,20.70
2017,09,21,15,52,20.70
2017,09,21,15,53,20.60
2017,09,21,15,54,20.60
2017,09,21,15,55,20.60
2017,09,21,15,56,20.60
2017,09,21,15,57,20.60
2017,09,21,15,58,20.60
2017,09,21,15,59,20.60
2017,09,21,16,00,20.60
2017,09,21,16,01,20.60
2017,09,21,16,02,20.60
2017,09,21,16,03,20.60
2017,09,21,16,04,20.60
2017,09,21,16,05,20.60
2017,09,21,16,06,20.60
2017,09,21,16,07,20.70
2017,09,21,16,08,20.70
2017,09,21,16,09,20.70
2017,09,21,16,10,20.60
2017,09,21,16,11,20.60
2017,09,21,16,12,20.60
2017,09,21,16,13,20.60
2017,09,21,16,14,20.60
2017,09,21,16,15,20.60
2017,09,21,16,16,20.50
2017,09,21,16,17,20.60
2017,09,21,16,18,20.60
2017,09,21,16,19,20.60
2017,09,21,16,20,20.60
2017,09,21,16,21,20.60
2017,09,21,16,22,20.60
2017,09,21,16,23,20.60
2017,09,21,16,24,20.60
2017,09,21,16,25,20.60
2017,09,21,16,26,20.60
2017,09,21,16,27,20.60
2017,09,21,16,28,20.60
2017,09,21,16,29,20.60
2017,09,21,16,30,20.60
2017,09,21,16,31,20.60
2017,09,21,16,32,20.60
2017,09,21,16,33,20.60
2017,09,21,16,34,20.60
2017,09,21,16,35,20.70
2017,09,21,16,36,20.70
2017,09,21,16,37,20.70
2017,09,21,16,38,20.70
2017,09,21,16,39,20.70
2017,09,21,16,40,20.70
2017,09,21,16,41,20.70
2017,09,21,16,42,20.70
2017,09,21,16,43,20.70
2017,09,21,16,44,20.70
2017,09,21,16,45,20.80
2017,09,21,16,46,20.80
2017,09,21,16,47,20.80
2017,09,21,16,48,20.80
2017,09,21,16,49,20.90
2017,09,21,16,50,20.90
2017,09,21,16,51,20.90
2017,09,21,16,52,21.00
2017,09,21,16,53,21.00
2017,09,21,16,54,21.10
2017,09,21,16,55,21.10
2017,09,21,16,56,21.10
2017,09,21,16,57,21.00
2017,09,21,16,58,21.00
2017,09,21,16,59,21.00
2017,09,21,17,00,20.90
2017,09,21,17,01,20.90
2017,09,21,17,02,20.90
2017,09,21,17,03,20.90
2017,09,21,17,04,21.00
2017,09,21,17,05,21.00
2017,09,21,17,06,21.00
2017,09,21,17,07,21.00
2017,09,21,17,08,21.00
2017,09,21,17,09,21.00
2017,09,21,17,10,21.00
2017,09,21,17,11,21.00
2017,09,21,17,12,21.00
2017,09,21,17,13,21.00
2017,09,21,17,14,21.00
2017,09,21,17,15,21.00
2017,09,21,17,16,21.00
2017,09,21,17,17,21.00
2017,09,21,17,18,21.00
2017,09,21,17,19,20.90
2017,09,21,17,20,20.90
2017,09,21,17,21,20.90
2017,09,21,17,22,20.90
2017,09,21,17,23,20.90
2017,09,21,17,24,20.90
2017,09,21,17,25,20.90
2017,09,21,17,26,20.90
2017,09,21,17,27,20.80
2017,09,21,17,28,20.80
2017,09,21,17,29,20.80
2017,09,21,17,30,20.80
2017,09,21,17,31,20.80
2017,09,21,17,32,20.80
2017,09,21,17,33,20.70